Regional Weather Roundup
Issued by NWS Cleveland, OH

Home | Current Version | Previous Version | Graphics & Text | Print | Product List | Glossary On
Versions: 1 2 3 4 5 6 7 8 9 10 11 12 13 14 15 16 17 18 19 20 21 22 23 24 25 26 27 28 29 30 31 32 33 34 35 36 37 38 39 40 41 42 43 44 45 46 47 48 49 50
820
ASUS41 KCLE 011910
RWRCLE
OHIO REGIONAL WEATHER ROUNDUP
NATIONAL WEATHER SERVICE CLEVELAND, OH
300 PM EDT SAT OCT 01 2016

NOTE: "FAIR" INDICATES FEW OR NO CLOUDS BELOW 12,000 FEET WITH NO
SIGNIFICANT WEATHER AND/OR OBSTRUCTIONS TO VISIBILITY.

OHZ001>008-015>018-024>027-034-035-043-044-012000-
   NORTHWEST OHIO

CITY           SKY/WX    TMP DP  RH WIND       PRES   REMARKS
DEFIANCE       CLOUDY    63  56  78 E3        30.00F
FINDLAY        MOSUNNY   68  51  54 S10       30.00F
TOLEDO EXPRESS PTSUNNY   64  55  72 VRB3      30.00F
TOLEDO EXEC    CLOUDY    65  56  72 SE8       30.01F
LIMA           CLOUDY    63  52  67 S10       30.01F
$$

OHZ009>014-019>023-028>033-038-089-012000-
   NORTHEAST OHIO

CITY           SKY/WX    TMP DP  RH WIND       PRES   REMARKS
CLE-HOPKINS    CLOUDY    70  54  56 SW9       30.05F
CLE-LAKEFRONT  CLOUDY    67  58  72 N9        30.02F
CUY CO. ARPT   PTSUNNY   68  61  77 S7        30.04F
LORAIN-ELYRIA  PTSUNNY   68  52  56 W5        30.03F
ASHTABULA      CLOUDY    65  60  84 N5        30.06S
AKRON-CANTON   CLOUDY    69  52  54 SW6       30.04F
WOOSTER        CLOUDY    67  53  61 S8        30.05F
MANSFIELD      CLOUDY    64  53  67 S10       30.04F
YOUNGSTOWN     CLOUDY    64  58  80 SE6       30.06S
$$

OHZ042-051>053-060>062-070>072-077>081-012000-
  SOUTHWEST OHIO

CITY           SKY/WX    TMP DP  RH WIND       PRES   REMARKS
CINC-COVINGTON PTSUNNY   65  55  70 S8        30.02F
CINC-LUNKEN    PTSUNNY   65  57  75 S8        30.02F
HAMILTON       MOSUNNY   68  54  60 SW8       30.02F
DAYTON         PTSUNNY   65  52  62 SW9       30.03F
WRIGHT-PAT AFB MOSUNNY   66  51  59 W7        30.01F
DAYTON GENERAL PTSUNNY   65  51  60 S10       30.01F
WILMINGTON     CLOUDY    65  55  70 S10       30.02F
$$

OHZ036-037-039>041-045>050-054>059-063>069-073>076-082>088-012000-
  CENTRAL AND SOUTHEAST OHIO

CITY           SKY/WX    TMP DP  RH WIND       PRES   REMARKS
COLUMBUS       CLOUDY    66  56  70 S10       30.03F
OSU AIRPORT    CLOUDY    68  56  65 S10       30.02F
BOLTON FIELD   CLOUDY    66  55  68 S9        30.03F
RICKENBACK AFB CLOUDY    65  55  70 S14       30.03F
NEWARK         CLOUDY    66  54  65 SW7       30.03F
MARION         CLOUDY    65  53  65 S14       30.03F
LANCASTER      CLOUDY    65  54  67 S10       30.04F
ZANESVILLE     CLOUDY    67  53  61 S8        30.04F
NEW PHILLY     PTSUNNY   69  54  58 SW7       30.05F
$$




USA.gov is the U.S. government's official web portal to all federal, state and local government web resources and services.